Regional Weather Roundup
Issued by NWS Austin/San Antonio, TX

Home | Current Version | Previous Version | Text Only | Print | Product List | Glossary On
Versions: 1 2 3 4 5 6 7 8 9 10 11 12 13 14 15 16 17 18 19 20 21 22 23 24 25 26 27 28 29 30 31 32 33 34 35 36 37 38 39 40 41 42 43 44 45 46 47 48 49 50
000
ASUS44 KEWX 201410
RWREWX
SOUTH TEXAS REGIONAL WEATHER ROUNDUP
NATIONAL WEATHER SERVICE AUSTIN/SAN ANTONIO TX
900 AM CDT SAT APR 20 2019

NOTE: "FAIR" INDICATED FEW OR NO CLOUDS BELOW 12,000 FEET WITH NO
SIGNIFICANT WEATHER AND/OR OBSTRUCTIONS TO VISIBILITY.

* - THESE STATIONS ARE NOT NWS OR FAA STATIONS...AND ARE NOT SUBJECT
    TO NWS AND FAA QUALITY CONTROL.

TXZ171-172-183>190-201500-
TEXAS HILL COUNTRY AND EDWARDS PLATEAU

CITY           SKY/WX    TMP DP  RH WIND       PRES   REMARKS
JUNCTION       SUNNY     53  46  77 CALM      30.13R
*LLANO         SUNNY     55  46  71 CALM      30.16S
BURNET         SUNNY     59  42  53 S5        30.14R
*HORSESHOE BAY SUNNY     56  45  65 CALM      30.14R
*KERRVILLE     SUNNY     51  46  84 CALM      30.15R
*FREDERICKSBRG SUNNY     54  44  68 CALM      30.14S
*ROCKSPRINGS     N/A     57  37  47 SE10G18   30.17S
*BOERNE STAGE  SUNNY     59  41  51 CALM      30.16R
*CASTROVILLE   SUNNY     59  47  63 CALM      30.16R
HONDO          SUNNY     61  49  64 E3        30.14R
*UVALDE        SUNNY     60  46  59 E7        30.14R
DEL RIO        SUNNY     63  43  48 E7        30.09R
LAUGHLIN AFB   SUNNY     63  44  50 SE12      30.10
CARRIZO SPRGS  SUNNY     59  50  72 SE3       30.10R
*FAITH RANCH   SUNNY     64  48  55 SE7       30.10R
$$

TXZ173-191>194-202-209-217>225-228-201500-
CENTRAL AND SOUTH CENTRAL TEXAS

CITY           SKY/WX    TMP DP  RH WIND       PRES   REMARKS
GEORGETOWN     SUNNY     59  46  62 S5        30.14S
AUSTIN/BERGSTM MOSUNNY   61  47  59 CALM      30.13R
AUSTIN/MABRY   SUNNY     58  46  64 CALM      30.14R
*AUSTIN/EXEC   SUNNY     61  48  63 CALM      30.14R
*LAGO VISTA    SUNNY     59  40  49 SW7       30.14R
SAN MARCOS     SUNNY     58  48  69 CALM      30.16R
NEW BRAUNFELS  SUNNY     59  47  64 SW5       30.14R
RANDOLPH AFB   SUNNY     60  48  66 CALM      30.15
PT SAN ANTONIO SUNNY     60  47  61 CALM      30.12
SAN ANTONIO    MOSUNNY   60  46  59 CALM      30.15R
STINSON FIELD  SUNNY     63  43  48 CALM      30.13R
*LA GRANGE     SUNNY     58  52  80 CALM      30.12S
*GIDDINGS      SUNNY     63  50  61 SW5       30.14S
*GONZALES      SUNNY     57  51  78 CALM      30.15R
$$

TXZ163>164-176>182-195>201-210>213-226-227-235-201500-
SOUTHEAST TEXAS

CITY           SKY/WX    TMP DP  RH WIND       PRES   REMARKS
COLLEGE STN    SUNNY     58  47  66 W5        30.13R
*BRYAN         SUNNY     56  49  76 W3        30.14R
*CALDWELL      SUNNY     58  49  71 SW6       30.14R
*CROCKETT        N/A     54  48  82 CALM      30.14S
*BRENHAM       SUNNY     58  51  77 W3        30.14R
HUNTSVILLE     SUNNY     61  47  59 CALM      30.11S
CONROE         SUNNY     59  51  75 CALM      30.13R
HOUSTON BUSH   SUNNY     61  50  67 CALM      30.12S
HOUSTON HOBBY  FAIR      63  44  50 CALM      30.12R
*HOUSTON SW AP FAIR      59  50  73 W3        30.15R
PEARLAND       FAIR      61  50  67 SW3       30.14R
HOUSTON HOOKS  FAIR      60  47  61 NW3       30.13R
ELLINGTON FLD  NOT AVBL
SUGAR LAND     FAIR      59  50  72 W6        30.14R
*HOUSTON EXEC  FAIR      61  50  67 CALM      30.15R
*CLEVELAND MUN FAIR      57  49  76 CALM      30.13R
*WHARTON       SUNNY     58  48  70 CALM      30.16R
*COLUMBUS      FAIR      60  48  65 CALM      30.16R
*EAGLE LAKE    SUNNY     59  48  65 CALM      30.14
$$

TXZ214>216-236>238-201500-
THE UPPER TEXAS COAST

CITY           SKY/WX    TMP DP  RH WIND       PRES   REMARKS
*ORANGE        FAIR      57  50  76 NW3       30.13R
PORT ARTHUR    FAIR      60  47  61 NW3       30.11R
GALVESTON      FAIR      65  49  56 W3        30.13R
ANGLETON       FAIR      58  48  69 SW3       30.15R
*BAY CITY      SUNNY     57  50  76 CALM      30.15R
PALACIOS       SUNNY     67  50  54 SE3       30.15R
$$

TXZ229>234-239>247-201500-
TEXAS COASTAL BEND AND RIO GRANDE PLAINS

CITY           SKY/WX    TMP DP  RH WIND       PRES   REMARKS
VICTORIA       SUNNY     63  52  67 S3        30.15R
*BEEVILLE      SUNNY     66  55  67 SE3       30.14R
ROCKPORT       SUNNY     70  56  61 SE6       30.14R
*PORT ARANSAS  SUNNY     71  56  59 SE8       30.15R
*PORT LAVACA   SUNNY     67  55  64 CALM      30.15S
*INGLESIDE     SUNNY     68  60  74 CALM      30.14R
CORPUS CHRISTI MOSUNNY   68  58  70 SE5       30.13R
CORPUS NAS     SUNNY     74  61  63 S5        30.14R
*ROBSTOWN      NOT AVBL
ALICE          MOSUNNY   63  57  81 SE6       30.12R
KINGSVILLE NAS MOSUNNY   66  60  81 E5        30.13R
COTULLA        SUNNY     65  50  58 SE8       30.12R
LAREDO         SUNNY     69  51  52 SE12      30.09R
$$

TXZ248>255-201500-
DEEP SOUTH TEXAS

CITY           SKY/WX    TMP DP  RH WIND       PRES   REMARKS
BROWNSVILLE    FAIR      73  63  70 SE9       30.12R
PORT ISABEL    FAIR      72  62  71 SE7       30.11R
HARLINGEN      SUNNY     70  60  70 SE10      30.11R
*HEBBRONVILLE  MOSUNNY   64  54  69 S7        30.12R
MCALLEN        MOSUNNY   70  60  70 SE12      30.11R
*WESLACO       PTSUNNY   70  58  67 SE8       30.10
FALFURRIAS     MOSUNNY   64  56  76 CALM      30.12R
EDINBURG       FAIR      70  60  70 SE10      30.12R
*ZAPATA        FAIR      69  53  57 SE7       30.09S
$$

TXZ213>215-236>238-242>244-246-247-251-254-255-201500-
CMAN STATIONS

STATION/POSITION TIME  TEMP    WIND        PRES    WAVE
                       AIR SEA DIR/SP/G            HT/PER
                 (UTC) (F)     (DEG/KT/KT) (MB)    (FT/S)
SABINE PASS      1342   60 70  310/  6/  8 1021.4
SEA RIM ST PARK  1400   60     340/  7/  8 1019.8
NORTH JETTY/GLS  1342   65 68  350/  6/  8 1019.6
EAGLE POINT      1342   62 67  330/  3/  4 1020.2
MORGANS POINT    1342   62 69  310/  4/  5 1019.9
PORT O`CONNOR    1342   71 70  110/  4/  5 1020.5
PORT ARANSAS     1400   70 69  130/  8/  9 1020.5
MALAQUITE BEACH  1342   88 71  180/  3/  4 1020.0
BAFFIN BAY       1342   68 72  150/  4/  5 1020.6
PORT ISABEL      1342   72 74  130/  9/ 11 1020.0
$$



USA.gov is the U.S. government's official web portal to all federal, state and local government web resources and services.